TimePST,TemperatureF,Dew PointF,Humidity,Sea Level PressureIn,VisibilityMPH,Wind Direction,Wind SpeedMPH,Gust SpeedMPH,PrecipitationIn,Events,Conditions,WindDirDegrees,DateUTC
12:00 AM,-40.0,-9999,N/A,30.13,20.0,Calm,Calm,-,N/A,,Clear,0,2013-01-27 08:00:00
1:00 AM,-40.0,-9999,N/A,30.16,20.0,Calm,Calm,-,N/A,,Clear,0,2013-01-27 09:00:00
2:00 AM,-41.8,-9999,N/A,30.18,20.0,West,2.3,-,N/A,,Clear,270,2013-01-27 10:00:00
3:00 AM,-43.6,-9999,N/A,30.19,20.0,Calm,Calm,-,N/A,,Clear,0,2013-01-27 11:00:00
4:00 AM,-43.6,-9999,N/A,30.22,20.0,West,2.3,-,N/A,,Clear,260,2013-01-27 12:00:00
5:00 AM,-45.4,-9999,N/A,30.22,20.0,Calm,Calm,-,N/A,Fog,Clear,0,2013-01-27 13:00:00
6:00 AM,-47.2,-9999,N/A,30.24,20.0,West,3.5,-,N/A,Fog,Clear,270,2013-01-27 14:00:00
7:00 AM,-49.0,-9999,N/A,30.27,20.0,West,2.3,-,N/A,Fog,Clear,270,2013-01-27 15:00:00
8:00 AM,-50.8,-9999,N/A,30.27,4.0,Calm,Calm,-,N/A,,Clear,0,2013-01-27 16:00:00
9:00 AM,-50.8,-9999,N/A,30.29,4.0,Calm,Calm,-,N/A,,Partly Cloudy,0,2013-01-27 17:00:00
10:00 AM,-52.6,-9999,N/A,30.32,20.0,Calm,Calm,-,N/A,,Partly Cloudy,0,2013-01-27 18:00:00
11:00 AM,-50.8,-9999,N/A,30.34,20.0,Calm,Calm,-,N/A,,Partly Cloudy,0,2013-01-27 19:00:00
12:00 PM,-50.8,-9999,N/A,30.35,20.0,Calm,Calm,-,N/A,,Partly Cloudy,0,2013-01-27 20:00:00
1:00 PM,-45.4,-9999,N/A,30.36,20.0,Calm,Calm,-,N/A,,Scattered Clouds,0,2013-01-27 21:00:00
2:00 PM,-45.4,-9999,N/A,30.36,20.0,Calm,Calm,-,N/A,,Scattered Clouds,0,2013-01-27 22:00:00
3:00 PM,-40.0,-9999,N/A,30.38,20.0,Calm,Calm,-,N/A,,Scattered Clouds,0,2013-01-27 23:00:00
4:00 PM,-40.0,-9999,N/A,30.37,20.0,Calm,Calm,-,N/A,Fog,Scattered Clouds,0,2013-01-28 00:00:00
5:00 PM,-43.6,-9999,N/A,30.39,20.0,Calm,Calm,-,N/A,,Mostly Cloudy,0,2013-01-28 01:00:00
6:00 PM,-43.6,-9999,N/A,30.40,20.0,Calm,Calm,-,N/A,Fog,Scattered Clouds,0,2013-01-28 02:00:00
7:00 PM,-45.4,-9999,N/A,30.44,20.0,Calm,Calm,-,N/A,Fog,Shallow Fog,0,2013-01-28 03:00:00
8:00 PM,-47.2,-9999,N/A,30.46,20.0,Calm,Calm,-,N/A,Fog,Shallow Fog,0,2013-01-28 04:00:00
9:00 PM,-49.0,-9999,N/A,30.48,20.0,Calm,Calm,-,N/A,Fog,Shallow Fog,0,2013-01-28 05:00:00
10:00 PM,-50.8,-9999,N/A,30.52,20.0,Calm,Calm,-,N/A,Fog,Partly Cloudy,0,2013-01-28 06:00:00
11:00 PM,-52.6,-9999,N/A,30.54,20.0,Calm,Calm,-,N/A,,Clear,0,2013-01-28 07:00:00